Home   Weather   Fosnavåg   Past weeks

Flag for Norway Past Weather in Fosnavåg, Norway — Yesterday and Last 2 Weeks

Now
43 °F

Quite cool.


Feels Like: 36 °F
Forecast: 41 / 46 °F
Wind: 13 mph from South

Location: Svinoy Fyr

Current Time: Jan 17, 2017 at 2:12:25 am

Latest Report: Jan 17, 2017 at 1:00 am


Visibility: N/A

Pressure: 30.18 "Hg

Humidity: 75%

Dew Point: 35 °F

Location of FosnavågLocation

Past Weather in Fosnavåg — Graph

°F

Fosnavåg Temperature Yesterday

Maximum temperature yesterday: 41 °F (at 11:00 pm)
Minimum temperature yesterday: 34 °F (at 5:00 am)
Average temperature yesterday: 36 °F

High & Low Weather Summary for the Past Weeks

 TemperatureHumidityPressure
High48 °F (Jan 9, 2:00 pm)96% (Jan 8, 11:00 am)30.45 "Hg (Jan 8, 11:00 am)
Low31 °F (Jan 14, 2:00 pm)43% (Jan 5, 3:00 am)28.53 "Hg (Jan 12, 5:00 am)
Average39 °F74%29.66 "Hg
* Reported Jan 2 12:00 am — Jan 17 12:00 am, Fosnavåg, Weather by CustomWeather, © 2017

Note: Actual official high and low records may vary slightly from our data, if they occured in-between our weather recording intervals... More about our weather records

Advertising

Fosnavåg Weather History for the Previous 24 Hours

Scroll right to see more
 ConditionsComfort  
Time TempWeatherWind HumidityBarometerVisibility
12:00 am
Tue, Jan 17
42 °FQuite cool.13 mph76%30.19 "HgN/A
11:00 pm
Mon, Jan 16
41 °FQuite cool.N/A76%30.18 "HgN/A
10:00 pm40 °FQuite cool.18 mph78%30.18 "HgN/A
9:00 pm39 °FChilly.15 mph82%30.18 "HgN/A
8:00 pm39 °FChilly.14 mph79%30.19 "HgN/A
7:00 pm39 °FChilly.14 mph70%30.18 "HgN/A
6:00 pm39 °FChilly.14 mph67%30.19 "HgN/A
5:00 pm38 °FChilly.14 mph60%30.19 "HgN/A
4:00 pm38 °FChilly.16 mph52%30.19 "HgN/A
3:00 pm38 °FChilly.14 mph53%30.21 "HgN/A
2:00 pm37 °FChilly.13 mph55%30.21 "HgN/A
1:00 pm36 °FChilly.13 mph52%30.23 "HgN/A
12:00 pm36 °FChilly.12 mph52%30.24 "HgN/A
11:00 am36 °FChilly.10 mph57%30.25 "HgN/A
10:00 am35 °FChilly.8 mph62%30.25 "HgN/A
9:00 am35 °FChilly.8 mph65%30.25 "HgN/A
8:00 am35 °FChilly.7 mph62%30.27 "HgN/A
7:00 am34 °FChilly.7 mph70%30.26 "HgN/A
6:00 am34 °FChilly.5 mph70%30.26 "HgN/A
5:00 am34 °FChilly.5 mph68%30.27 "HgN/A
4:00 am34 °FChilly.6 mph70%30.27 "HgN/A
3:00 am34 °FChilly.6 mph71%30.28 "HgN/A
2:00 am35 °FChilly.6 mph69%30.28 "HgN/A
Weather by CustomWeather, © 2017

See weather overviewHow to use our weather pages